Location: Newark
(52.3735°N, 16.9806°E)
Time: 20:04:08
(UTC+00:00)

ISS - Pass Details

Date: 26 September 2021
Orbit: 417 x 423 km, 51.6° (Epoch: 18 October)

Event Time Altitude Azimuth Distance (km) Brightness Sun altitude
Rises 18:57:16 0° 278° (W) 2,366 1.4 -21.0°
Reaches altitude 10° 18:59:22 10° 275° (W) 1,502 0.0 -21.3°
Enters shadow 19:02:08 50° 243° (WSW) 540 -3.1 -21.7°
